| time (UTC) | temp F | wind direction | speed MPH | gust MPH | rain 1hr in | rain 24hr in | rain mn in | humidity % | barometer mb |
| 20260904102604 | 50 | 224 | 0.0 | 0.0 | 0.00 | 0.60 | 0.01 | 90 | 1008.4 |
| 20260904101604 | 50 | 224 | 0.0 | 0.0 | 0.00 | 0.61 | 0.01 | 89 | 1008.4 |
| 20260904100603 | 50 | 224 | 0.0 | 0.0 | 0.00 | 0.61 | 0.01 | 89 | 1008.4 |
| 20260904100104 | 50 | 224 | 0.0 | 0.0 | 0.00 | 0.61 | 0.01 | 89 | 1008.5 |
| 20260904095605 | 50 | 224 | 0.0 | 0.0 | 0.00 | 0.62 | 0.01 | 89 | 1008.6 |
| 20260904095104 | 51 | 224 | 0.0 | 0.0 | 0.01 | 0.62 | 0.01 | 89 | 1008.6 |
| 20260904094603 | 51 | 224 | 0.0 | 0.0 | 0.01 | 0.62 | 0.01 | 89 | 1008.6 |
| 20260904093605 | 51 | 224 | 0.0 | 0.0 | 0.01 | 0.63 | 0.01 | 89 | 1008.5 |
| 20260904093104 | 51 | 224 | 0.0 | 0.0 | 0.01 | 0.63 | 0.01 | 89 | 1008.5 |
| 20260904092604 | 51 | 224 | 0.0 | 0.0 | 0.01 | 0.63 | 0.01 | 89 | 1008.4 |
| 20260904092104 | 52 | 224 | 0.0 | 0.0 | 0.01 | 0.63 | 0.01 | 89 | 1008.4 |
| 20260904091603 | 52 | 224 | 0.0 | 0.0 | 0.01 | 0.63 | 0.01 | 89 | 1008.5 |
| 20260904091106 | 52 | 224 | 0.0 | 0.0 | 0.01 | 0.63 | 0.01 | 90 | 1008.5 |
| 20260904090606 | 52 | 224 | 0.0 | 0.0 | 0.01 | 0.66 | 0.01 | 89 | 1008.5 |
| 20260904090106 | 52 | 224 | 0.0 | 0.0 | 0.01 | 0.68 | 0.01 | 89 | 1008.5 |
| 20260904085605 | 52 | 224 | 0.0 | 0.0 | 0.01 | 0.70 | 0.01 | 89 | 1008.6 |
| 20260904084606 | 52 | 224 | 0.0 | 0.0 | 0.00 | 0.70 | 0.00 | 89 | 1008.5 |
| 20260904084105 | 52 | 224 | 0.0 | 0.0 | 0.00 | 0.70 | 0.00 | 89 | 1008.5 |
| 20260904083606 | 52 | 224 | 0.0 | 0.0 | 0.00 | 0.71 | 0.00 | 89 | 1008.5 |
| 20260904083105 | 52 | 224 | 0.0 | 0.0 | 0.00 | 0.71 | 0.00 | 89 | 1008.5 |
| 20260904082606 | 52 | 224 | 0.0 | 2.0 | 0.00 | 0.72 | 0.00 | 89 | 1008.5 |
| 20260904082105 | 53 | 224 | 0.0 | 2.0 | 0.00 | 0.73 | 0.00 | 89 | 1008.4 |
| 20260904081606 | 53 | 224 | 0.0 | 0.0 | 0.00 | 0.77 | 0.00 | 89 | 1008.4 |
| 20260904081105 | 53 | 224 | 0.0 | 0.0 | 0.00 | 0.79 | 0.00 | 89 | 1008.3 |
| 20260904080605 | 53 | 224 | 0.0 | 0.0 | 0.00 | 0.79 | 0.00 | 89 | 1008.2 |
| 20260904080106 | 53 | 224 | 0.0 | 0.0 | 0.00 | 0.79 | 0.00 | 89 | 1008.2 |
| 20260904075606 | 53 | 224 | 0.0 | 0.0 | 0.00 | 0.80 | 0.00 | 89 | 1008.2 |
| 20260904075107 | 53 | 224 | 0.0 | 0.0 | 0.00 | 0.81 | 0.00 | 89 | 1008.3 |
| 20260904074605 | 53 | 224 | 0.0 | 0.0 | 0.00 | 0.84 | 0.00 | 89 | 1008.2 |
| 20260904074106 | 53 | 224 | 0.0 | 0.0 | 0.00 | 0.87 | 0.00 | 89 | 1008.1 |
| 20260904073605 | 53 | 224 | 0.0 | 0.0 | 0.00 | 0.87 | 0.00 | 89 | 1008.1 |
| 20260904073106 | 53 | 224 | 0.0 | 0.0 | 0.00 | 0.87 | 0.00 | 89 | 1008.0 |
| 20260904072105 | 53 | 224 | 0.0 | 1.0 | 0.00 | 0.87 | 0.00 | 89 | 1008.0 |
| 20260904071606 | 53 | 224 | 0.0 | 1.0 | 0.00 | 0.87 | 0.00 | 89 | 1008.0 |
| 20260904071109 | 53 | 224 | 0.0 | 2.0 | 0.00 | 0.88 | 0.00 | 89 | 1008.0 |
| 20260904070605 | 53 | 224 | 0.0 | 2.0 | 0.00 | 0.90 | 0.00 | 89 | 1007.9 |
| 20260904070106 | 53 | 224 | 0.0 | 2.0 | 0.00 | 0.91 | 0.00 | 89 | 1007.9 |
| 20260904064606 | 53 | 224 | 0.0 | 0.0 | 0.00 | 0.97 | 0.91 | 89 | 1008.0 |
| 20260904064105 | 53 | 224 | 0.0 | 0.0 | 0.00 | 0.97 | 0.91 | 89 | 1008.0 |
| 20260904063605 | 53 | 224 | 0.0 | 0.0 | 0.00 | 0.97 | 0.91 | 89 | 1008.0 |
| 20260904063106 | 54 | 224 | 0.0 | 1.0 | 0.00 | 0.97 | 0.91 | 89 | 1008.0 |
| 20260904062606 | 54 | 224 | 0.0 | 2.0 | 0.00 | 0.97 | 0.91 | 89 | 1008.0 |
| 20260904062107 | 54 | 224 | 0.0 | 2.0 | 0.00 | 0.97 | 0.91 | 89 | 1008.0 |
| 20260904061606 | 53 | 224 | 0.0 | 1.0 | 0.00 | 0.97 | 0.91 | 88 | 1007.9 |
| 20260904060606 | 54 | 224 | 0.0 | 0.0 | 0.00 | 0.98 | 0.91 | 88 | 1008.1 |
| 20260904060106 | 54 | 224 | 0.0 | 1.0 | 0.00 | 0.99 | 0.91 | 88 | 1008.0 |
| 20260904055605 | 54 | 224 | 0.0 | 2.0 | 0.00 | 0.99 | 0.91 | 88 | 1008.0 |
| 20260904055106 | 54 | 224 | 0.0 | 2.0 | 0.00 | 0.99 | 0.91 | 88 | 1007.9 |
| 20260904054105 | 54 | 224 | 0.0 | 0.0 | 0.00 | 0.99 | 0.91 | 88 | 1008.0 |
| 20260904053605 | 54 | 224 | 0.0 | 0.0 | 0.00 | 0.99 | 0.91 | 88 | 1008.0 |
| 20260904053106 | 54 | 224 | 0.0 | 0.0 | 0.00 | 0.99 | 0.91 | 88 | 1008.0 |
| 20260904052605 | 54 | 224 | 0.0 | 0.0 | 0.00 | 0.99 | 0.91 | 88 | 1008.0 |
| 20260904051605 | 54 | 224 | 0.0 | 0.0 | 0.00 | 0.99 | 0.91 | 88 | 1008.0 |
| 20260904051105 | 54 | 224 | 0.0 | 0.0 | 0.00 | 0.99 | 0.91 | 88 | 1008.1 |
| 20260904050106 | 54 | 224 | 0.0 | 1.0 | 0.00 | 0.99 | 0.91 | 88 | 1008.1 |
| 20260904045605 | 54 | 224 | 0.0 | 1.0 | 0.00 | 0.99 | 0.91 | 88 | 1008.1 |
| 20260904045106 | 54 | 224 | 0.0 | 0.0 | 0.00 | 0.99 | 0.91 | 88 | 1008.1 |
| 20260904044605 | 54 | 224 | 0.0 | 1.0 | 0.00 | 0.99 | 0.91 | 88 | 1008.1 |
| 20260904044105 | 54 | 224 | 0.0 | 1.0 | 0.00 | 0.99 | 0.91 | 87 | 1008.1 |
| 20260904043606 | 54 | 224 | 0.0 | 1.0 | 0.00 | 0.99 | 0.91 | 87 | 1008.1 |
| 20260904043105 | 54 | 224 | 0.0 | 2.0 | 0.00 | 0.99 | 0.91 | 87 | 1008.1 |
| 20260904042605 | 54 | 224 | 0.0 | 2.0 | 0.00 | 0.99 | 0.91 | 87 | 1008.1 |
| 20260904042106 | 54 | 224 | 0.0 | 2.0 | 0.00 | 0.99 | 0.91 | 87 | 1008.1 |
| 20260904041606 | 54 | 224 | 0.0 | 0.0 | 0.00 | 0.99 | 0.91 | 86 | 1008.0 |
| 20260904041106 | 54 | 224 | 0.0 | 0.0 | 0.00 | 0.99 | 0.91 | 87 | 1008.0 |
| 20260904040605 | 55 | 224 | 0.0 | 0.0 | 0.00 | 0.99 | 0.91 | 86 | 1008.1 |
| 20260904040105 | 55 | 224 | 0.0 | 0.0 | 0.00 | 0.99 | 0.91 | 86 | 1008.0 |
| 20260904035105 | 55 | 224 | 0.0 | 0.0 | 0.00 | 0.99 | 0.91 | 86 | 1007.9 |
| 20260904034605 | 55 | 224 | 0.0 | 0.0 | 0.00 | 0.99 | 0.91 | 86 | 1007.8 |
| 20260904034105 | 55 | 224 | 0.0 | 0.0 | 0.00 | 0.99 | 0.91 | 86 | 1007.8 |
| 20260904033605 | 55 | 224 | 0.0 | 0.0 | 0.00 | 0.99 | 0.91 | 86 | 1007.7 |
| 20260904033105 | 56 | 224 | 0.0 | 0.0 | 0.00 | 0.99 | 0.91 | 86 | 1007.6 |
| 20260904032605 | 56 | 224 | 0.0 | 0.0 | 0.00 | 0.99 | 0.91 | 86 | 1007.6 |
| 20260904032107 | 56 | 224 | 0.0 | 0.0 | 0.00 | 0.99 | 0.91 | 86 | 1007.5 |
| 20260904031608 | 56 | 224 | 0.0 | 1.0 | 0.01 | 0.99 | 0.91 | 86 | 1007.5 |
| 20260904031105 | 56 | 224 | 0.0 | 1.0 | 0.01 | 0.99 | 0.91 | 86 | 1007.4 |
| 20260904030105 | 57 | 224 | 0.0 | 2.0 | 0.02 | 0.99 | 0.91 | 86 | 1007.4 |
| 20260904025606 | 57 | 224 | 0.0 | 2.0 | 0.03 | 0.99 | 0.91 | 86 | 1007.4 |
| 20260904025106 | 57 | 224 | 0.0 | 0.0 | 0.03 | 0.99 | 0.91 | 86 | 1007.4 |
| 20260904024605 | 57 | 224 | 0.0 | 0.0 | 0.04 | 0.99 | 0.91 | 86 | 1007.3 |
| 20260904024105 | 57 | 224 | 0.0 | 0.0 | 0.04 | 0.99 | 0.91 | 86 | 1007.2 |
| 20260904023605 | 57 | 224 | 0.0 | 0.0 | 0.05 | 0.99 | 0.91 | 86 | 1007.2 |
| 20260904023105 | 57 | 224 | 0.0 | 0.0 | 0.06 | 0.99 | 0.91 | 86 | 1007.2 |
| 20260904022606 | 57 | 224 | 0.0 | 0.0 | 0.07 | 0.99 | 0.91 | 85 | 1007.2 |
| 20260904022105 | 57 | 224 | 0.0 | 0.0 | 0.09 | 0.99 | 0.91 | 85 | 1007.2 |
| 20260904021605 | 57 | 224 | 0.0 | 0.0 | 0.11 | 0.98 | 0.90 | 85 | 1007.2 |
| 20260904020605 | 57 | 224 | 0.0 | 0.0 | 0.15 | 0.97 | 0.89 | 85 | 1007.1 |
| 20260904020104 | 58 | 224 | 0.0 | 0.0 | 0.17 | 0.97 | 0.89 | 85 | 1007.2 |
| 20260904015105 | 58 | 224 | 0.0 | 0.0 | 0.22 | 0.96 | 0.88 | 84 | 1007.3 |
| 20260904014607 | 58 | 224 | 0.0 | 0.0 | 0.24 | 0.95 | 0.87 | 84 | 1007.3 |
| 20260904014113 | 58 | 224 | 0.0 | 0.0 | 0.26 | 0.95 | 0.87 | 84 | 1007.4 |
| 20260904013105 | 58 | 224 | 0.0 | 0.0 | 0.27 | 0.93 | 0.85 | 83 | 1007.4 |
| 20260904012105 | 59 | 224 | 0.0 | 1.0 | 0.25 | 0.90 | 0.82 | 83 | 1007.5 |
| 20260904011634 | 59 | 250 | 0.0 | 0.0 | 0.22 | 0.87 | 0.79 | 83 | 1007.6 |
| 20260904011105 | 59 | 224 | 0.0 | 2.0 | 0.21 | 0.86 | 0.78 | 83 | 1007.5 |
| 20260904010605 | 60 | 224 | 0.0 | 2.0 | 0.18 | 0.83 | 0.75 | 82 | 1007.4 |
| 20260904005604 | 61 | 224 | 0.0 | 3.0 | 0.13 | 0.78 | 0.70 | 82 | 1007.3 |
| 20260904005106 | 61 | 224 | 0.0 | 1.0 | 0.10 | 0.75 | 0.67 | 82 | 1007.4 |
| 20260904004606 | 61 | 224 | 0.0 | 0.0 | 0.07 | 0.72 | 0.64 | 82 | 1007.4 |
| 20260904004105 | 62 | 224 | 0.0 | 0.0 | 0.05 | 0.70 | 0.62 | 82 | 1007.3 |
| 20260904003605 | 62 | 224 | 0.0 | 0.0 | 0.03 | 0.68 | 0.60 | 81 | 1007.3 |
| 20260904003105 | 62 | 224 | 0.0 | 0.0 | 0.01 | 0.66 | 0.58 | 81 | 1007.2 |
| 20260904002604 | 62 | 224 | 0.0 | 0.0 | 0.02 | 0.66 | 0.58 | 81 | 1007.2 |
| 20260904002104 | 63 | 224 | 0.0 | 0.0 | 0.02 | 0.65 | 0.57 | 82 | 1007.1 |
| 20260904001606 | 63 | 224 | 0.0 | 0.0 | 0.02 | 0.65 | 0.57 | 82 | 1007.1 |
| 20260904001105 | 63 | 224 | 0.0 | 0.0 | 0.02 | 0.65 | 0.57 | 82 | 1007.0 |
| 20260904000606 | 63 | 224 | 0.0 | 0.0 | 0.02 | 0.65 | 0.57 | 82 | 1006.9 |
| 20260904000105 | 63 | 224 | 0.0 | 0.0 | 0.02 | 0.65 | 0.57 | 82 | 1006.9 |
| 20260903235605 | 63 | 224 | 0.0 | 0.0 | 0.02 | 0.65 | 0.57 | 81 | 1006.9 |
| 20260903235105 | 63 | 224 | 0.0 | 0.0 | 0.02 | 0.65 | 0.57 | 80 | 1006.8 |
| 20260903234608 | 63 | 224 | 0.0 | 0.0 | 0.02 | 0.65 | 0.57 | 79 | 1006.8 |
| 20260903234105 | 63 | 224 | 0.0 | 0.0 | 0.02 | 0.65 | 0.57 | 78 | 1006.9 |
| 20260903233605 | 64 | 224 | 0.0 | 1.0 | 0.02 | 0.65 | 0.57 | 77 | 1007.0 |
| 20260903233105 | 64 | 224 | 0.0 | 3.0 | 0.02 | 0.65 | 0.57 | 76 | 1007.0 |
| 20260903232604 | 64 | 224 | 1.0 | 3.0 | 0.02 | 0.64 | 0.56 | 76 | 1007.0 |
| 20260903231605 | 65 | 224 | 1.0 | 3.0 | 0.01 | 0.63 | 0.55 | 75 | 1006.8 |
| 20260903231104 | 65 | 228 | 0.0 | 2.0 | 0.01 | 0.63 | 0.55 | 76 | 1006.7 |
| 20260903230604 | 65 | 228 | 0.0 | 2.0 | 0.01 | 0.63 | 0.55 | 76 | 1006.7 |
| 20260903230105 | 65 | 228 | 0.0 | 2.0 | 0.01 | 0.63 | 0.55 | 76 | 1006.8 |
| 20260903225604 | 65 | 228 | 0.0 | 0.0 | 0.01 | 0.63 | 0.55 | 76 | 1006.8 |
| 20260903225104 | 65 | 228 | 0.0 | 0.0 | 0.01 | 0.63 | 0.55 | 75 | 1006.8 |
| 20260903224605 | 65 | 227 | 0.0 | 0.0 | 0.01 | 0.63 | 0.55 | 76 | 1006.8 |
| 20260903224105 | 65 | 228 | 0.0 | 3.0 | 0.01 | 0.63 | 0.55 | 74 | 1006.8 |
| 20260903223605 | 65 | 228 | 0.0 | 3.0 | 0.01 | 0.63 | 0.55 | 73 | 1006.8 |
| 20260903223104 | 65 | 228 | 1.0 | 3.0 | 0.01 | 0.63 | 0.55 | 72 | 1006.9 |
| 20260903222605 | 65 | 228 | 0.0 | 3.0 | 0.00 | 0.62 | 0.54 | 71 | 1006.8 |
| 20260903222105 | 65 | 228 | 1.0 | 3.0 | 0.00 | 0.62 | 0.54 | 72 | 1006.7 |
| 20260903221104 | 65 | 226 | 1.0 | 5.0 | 0.00 | 0.62 | 0.54 | 70 | 1006.8 |
| 20260903220605 | 65 | 195 | 2.0 | 5.0 | 0.00 | 0.62 | 0.54 | 71 | 1006.8 |
| 20260903220104 | 65 | 223 | 0.0 | 3.0 | 0.00 | 0.62 | 0.54 | 71 | 1006.8 |
| 20260903215604 | 65 | 223 | 2.0 | 6.0 | 0.00 | 0.62 | 0.54 | 69 | 1006.8 |
| 20260903215105 | 65 | 223 | 2.0 | 6.0 | 0.00 | 0.62 | 0.54 | 70 | 1006.7 |
| 20260903214605 | 65 | 220 | 1.0 | 9.0 | 0.00 | 0.62 | 0.54 | 72 | 1006.7 |
| 20260903214105 | 65 | 217 | 3.0 | 9.0 | 0.00 | 0.62 | 0.54 | 71 | 1006.7 |
| 20260903213605 | 65 | 199 | 3.0 | 6.0 | 0.00 | 0.62 | 0.54 | 72 | 1006.6 |
| 20260903213106 | 64 | 232 | 2.0 | 5.0 | 0.00 | 0.62 | 0.54 | 73 | 1006.7 |
| 20260903212606 | 64 | 202 | 2.0 | 6.0 | 0.00 | 0.62 | 0.54 | 74 | 1006.7 |
| 20260903212106 | 63 | 198 | 2.0 | 6.0 | 0.00 | 0.62 | 0.54 | 73 | 1006.7 |
| 20260903211605 | 63 | 223 | 2.0 | 6.0 | 0.00 | 0.62 | 0.54 | 74 | 1006.8 |
| 20260903211104 | 63 | 215 | 2.0 | 6.0 | 0.00 | 0.62 | 0.54 | 74 | 1006.6 |
| 20260903210605 | 63 | 221 | 3.0 | 6.0 | 0.00 | 0.62 | 0.54 | 74 | 1006.7 |
| 20260903210104 | 63 | 227 | 2.0 | 6.0 | 0.00 | 0.62 | 0.54 | 74 | 1006.6 |
| 20260903205604 | 63 | 197 | 3.0 | 6.0 | 0.00 | 0.62 | 0.54 | 75 | 1006.6 |
| 20260903205109 | 63 | 195 | 3.0 | 6.0 | 0.00 | 0.62 | 0.54 | 76 | 1006.6 |
| 20260903204606 | 63 | 195 | 2.0 | 6.0 | 0.00 | 0.62 | 0.54 | 77 | 1006.6 |
| 20260903203606 | 63 | 223 | 2.0 | 6.0 | 0.00 | 0.62 | 0.54 | 77 | 1006.4 |
| 20260903203105 | 63 | 195 | 3.0 | 6.0 | 0.00 | 0.62 | 0.54 | 78 | 1006.5 |
| 20260903202605 | 63 | 218 | 2.0 | 5.0 | 0.00 | 0.62 | 0.54 | 78 | 1006.5 |
| 20260903202106 | 62 | 228 | 2.0 | 6.0 | 0.00 | 0.63 | 0.54 | 78 | 1006.4 |
| 20260903201606 | 62 | 220 | 2.0 | 9.0 | 0.00 | 0.63 | 0.54 | 80 | 1006.4 |
| 20260903201104 | 62 | 222 | 3.0 | 9.0 | 0.00 | 0.65 | 0.54 | 82 | 1006.4 |
| 20260903200604 | 62 | 195 | 2.0 | 5.0 | 0.00 | 0.66 | 0.54 | 83 | 1006.4 |
| 20260903200104 | 62 | 204 | 2.0 | 6.0 | 0.00 | 0.66 | 0.54 | 84 | 1006.3 |
| 20260903195604 | 61 | 225 | 2.0 | 12.0 | 0.00 | 0.67 | 0.54 | 86 | 1006.4 |
| 20260903194104 | 60 | 230 | 1.0 | 6.0 | 0.00 | 0.69 | 0.54 | 89 | 1006.4 |
| 20260903193606 | 60 | 220 | 2.0 | 9.0 | 0.00 | 0.70 | 0.54 | 90 | 1006.4 |
| 20260903193105 | 60 | 204 | 3.0 | 9.0 | 0.00 | 0.70 | 0.54 | 90 | 1006.4 |
| 20260903192605 | 60 | 197 | 2.0 | 8.0 | 0.00 | 0.70 | 0.54 | 91 | 1006.3 |
| 20260903191604 | 60 | 195 | 2.0 | 6.0 | 0.00 | 0.72 | 0.54 | 91 | 1006.2 |
| 20260903191106 | 60 | 220 | 2.0 | 10.0 | 0.00 | 0.72 | 0.54 | 92 | 1006.3 |
| 20260903190606 | 60 | 195 | 2.0 | 10.0 | 0.00 | 0.73 | 0.54 | 92 | 1006.2 |
| 20260903184604 | 59 | 213 | 1.0 | 6.0 | 0.00 | 0.73 | 0.54 | 92 | 1006.3 |
| 20260903184106 | 59 | 195 | 2.0 | 6.0 | 0.01 | 0.73 | 0.54 | 92 | 1006.3 |
| 20260903183606 | 59 | 228 | 1.0 | 6.0 | 0.01 | 0.74 | 0.54 | 92 | 1006.3 |
| 20260903183106 | 59 | 209 | 2.0 | 6.0 | 0.01 | 0.76 | 0.54 | 92 | 1006.3 |
| 20260903182605 | 58 | 228 | 1.0 | 5.0 | 0.01 | 0.77 | 0.54 | 92 | 1006.4 |
| 20260903182105 | 58 | 220 | 2.0 | 5.0 | 0.01 | 0.77 | 0.54 | 92 | 1006.4 |
| 20260903181611 | 56 | 222 | 2.0 | 3.0 | 0.02 | 0.77 | 0.54 | 92 | 1006.3 |
| 20260903181105 | 55 | 216 | 1.0 | 5.0 | 0.02 | 0.77 | 0.54 | 92 | 1006.3 |
| 20260903180604 | 55 | 217 | 1.0 | 5.0 | 0.02 | 0.78 | 0.54 | 91 | 1006.4 |
| 20260903180105 | 55 | 227 | 1.0 | 5.0 | 0.02 | 0.78 | 0.54 | 91 | 1006.4 |
| 20260903175604 | 55 | 226 | 1.0 | 3.0 | 0.02 | 0.79 | 0.54 | 92 | 1006.4 |
| 20260903174604 | 55 | 216 | 2.0 | 8.0 | 0.02 | 0.80 | 0.54 | 91 | 1006.5 |
| 20260903174104 | 55 | 215 | 1.0 | 6.0 | 0.01 | 0.79 | 0.53 | 91 | 1006.4 |
| 20260903173605 | 55 | 199 | 1.0 | 6.0 | 0.01 | 0.79 | 0.53 | 91 | 1006.5 |
| 20260903173104 | 55 | 218 | 1.0 | 6.0 | 0.01 | 0.79 | 0.53 | 91 | 1006.4 |
| 20260903172105 | 55 | 195 | 1.0 | 5.0 | 0.02 | 0.80 | 0.53 | 91 | 1006.4 |
| 20260903171605 | 55 | 195 | 2.0 | 7.0 | 0.02 | 0.80 | 0.52 | 91 | 1006.3 |
| 20260903170104 | 55 | 216 | 2.0 | 5.0 | 0.03 | 0.83 | 0.52 | 91 | 1006.2 |
| 20260903165604 | 55 | 208 | 2.0 | 5.0 | 0.03 | 0.84 | 0.52 | 92 | 1006.2 |
| 20260903165104 | 55 | 223 | 1.0 | 5.0 | 0.03 | 0.85 | 0.52 | 92 | 1006.2 |
| 20260903164605 | 55 | 229 | 1.0 | 3.0 | 0.03 | 0.86 | 0.52 | 92 | 1006.2 |
| 20260903164104 | 55 | 225 | 1.0 | 3.0 | 0.03 | 0.87 | 0.52 | 91 | 1006.2 |
| 20260903163604 | 55 | 225 | 2.0 | 6.0 | 0.03 | 0.88 | 0.52 | 91 | 1006.2 |
| 20260903163104 | 55 | 201 | 2.0 | 6.0 | 0.03 | 0.90 | 0.52 | 91 | 1006.2 |
| 20260903162604 | 55 | 225 | 1.0 | 6.0 | 0.03 | 0.92 | 0.52 | 92 | 1006.1 |
| 20260903162104 | 55 | 224 | 1.0 | 6.0 | 0.02 | 0.92 | 0.51 | 92 | 1006.1 |
| 20260903161104 | 56 | 226 | 1.0 | 3.0 | 0.00 | 0.93 | 0.49 | 92 | 1006.1 |
| 20260903160104 | 56 | 229 | 2.0 | 5.0 | 0.00 | 0.95 | 0.49 | 92 | 1006.1 |
| 20260903155604 | 56 | 222 | 1.0 | 3.0 | 0.00 | 0.95 | 0.49 | 92 | 1006.1 |
| 20260903154603 | 56 | 225 | 0.0 | 5.0 | 0.00 | 0.95 | 0.49 | 92 | 1006.1 |
| 20260903154104 | 56 | 195 | 1.0 | 3.0 | 0.00 | 0.95 | 0.49 | 92 | 1006.1 |
| 20260903153606 | 56 | 247 | 1.0 | 3.0 | 0.00 | 0.96 | 0.49 | 92 | 1005.9 |
| 20260903152604 | 56 | 226 | 1.0 | 3.0 | 0.00 | 0.98 | 0.49 | 92 | 1005.8 |
| 20260903152105 | 56 | 226 | 1.0 | 3.0 | 0.00 | 0.98 | 0.49 | 92 | 1005.8 |
| 20260903151104 | 55 | 224 | 0.0 | 3.0 | 0.00 | 1.01 | 0.49 | 92 | 1005.8 |
| 20260903150605 | 55 | 224 | 2.0 | 3.0 | 0.00 | 1.04 | 0.49 | 92 | 1005.8 |
| 20260903150104 | 55 | 224 | 0.0 | 3.0 | 0.00 | 1.05 | 0.49 | 92 | 1005.7 |
| 20260903145604 | 55 | 224 | 1.0 | 3.0 | 0.00 | 1.07 | 0.49 | 92 | 1005.6 |
| 20260903145106 | 55 | 226 | 0.0 | 3.0 | 0.00 | 1.08 | 0.49 | 91 | 1005.6 |
| 20260903144604 | 55 | 226 | 0.0 | 3.0 | 0.00 | 1.08 | 0.49 | 91 | 1005.6 |
| 20260903144104 | 55 | 231 | 0.0 | 3.0 | 0.00 | 1.10 | 0.49 | 91 | 1005.7 |
| 20260903143604 | 55 | 231 | 0.0 | 3.0 | 0.00 | 1.12 | 0.49 | 91 | 1005.7 |
| 20260903143105 | 55 | 231 | 1.0 | 3.0 | 0.00 | 1.13 | 0.49 | 91 | 1005.6 |
| 20260903142604 | 55 | 231 | 1.0 | 3.0 | 0.00 | 1.13 | 0.49 | 91 | 1005.5 |
| 20260903142104 | 55 | 231 | 1.0 | 3.0 | 0.00 | 1.14 | 0.49 | 91 | 1005.5 |
| 20260903141104 | 55 | 223 | 1.0 | 2.0 | 0.00 | 1.16 | 0.49 | 91 | 1005.4 |
| 20260903140604 | 55 | 223 | 0.0 | 2.0 | 0.00 | 1.17 | 0.49 | 91 | 1005.3 |
| 20260903135604 | 55 | 223 | 1.0 | 3.0 | 0.00 | 1.17 | 0.49 | 91 | 1005.3 |
| 20260903135104 | 55 | 223 | 1.0 | 3.0 | 0.00 | 1.17 | 0.49 | 91 | 1005.2 |
| 20260903134604 | 54 | 223 | 1.0 | 3.0 | 0.00 | 1.17 | 0.49 | 91 | 1005.1 |
| 20260903134104 | 54 | 221 | 1.0 | 3.0 | 0.00 | 1.17 | 0.49 | 91 | 1005.0 |
| 20260903133604 | 54 | 232 | 1.0 | 3.0 | 0.00 | 1.17 | 0.49 | 91 | 1005.0 |
| 20260903133104 | 54 | 202 | 0.0 | 3.0 | 0.01 | 1.17 | 0.49 | 91 | 1005.0 |
| 20260903132605 | 54 | 195 | 1.0 | 3.0 | 0.01 | 1.17 | 0.49 | 91 | 1005.0 |
| 20260903131604 | 55 | 233 | 1.0 | 8.0 | 0.02 | 1.17 | 0.49 | 91 | 1005.0 |
| 20260903131104 | 55 | 228 | 1.0 | 8.0 | 0.03 | 1.17 | 0.49 | 91 | 1005.0 |
| 20260903130605 | 55 | 195 | 2.0 | 5.0 | 0.03 | 1.17 | 0.49 | 91 | 1005.0 |
| 20260903130105 | 55 | 231 | 2.0 | 3.0 | 0.03 | 1.17 | 0.49 | 91 | 1005.1 |
| 20260903125605 | 55 | 195 | 1.0 | 3.0 | 0.05 | 1.17 | 0.49 | 91 | 1005.1 |
| 20260903125107 | 55 | 219 | 1.0 | 3.0 | 0.06 | 1.17 | 0.49 | 91 | 1005.1 |
| 20260903124606 | 55 | 219 | 1.0 | 3.0 | 0.07 | 1.17 | 0.49 | 91 | 1005.0 |
| 20260903124108 | 55 | 221 | 2.0 | 3.0 | 0.09 | 1.17 | 0.49 | 91 | 1004.9 |
| 20260903123604 | 55 | 224 | 1.0 | 3.0 | 0.11 | 1.17 | 0.49 | 91 | 1004.8 |
| 20260903123106 | 55 | 223 | 1.0 | 5.0 | 0.14 | 1.16 | 0.48 | 91 | 1004.7 |
| 20260903122604 | 55 | 231 | 2.0 | 5.0 | 0.15 | 1.16 | 0.48 | 91 | 1004.8 |
| 20260903122104 | 55 | 222 | 1.0 | 3.0 | 0.14 | 1.15 | 0.47 | 91 | 1004.9 |
| 20260903121604 | 55 | 220 | 1.0 | 3.0 | 0.14 | 1.15 | 0.47 | 91 | 1005.1 |
| 20260903121104 | 55 | 195 | 1.0 | 3.0 | 0.13 | 1.14 | 0.46 | 91 | 1005.1 |
| 20260903120103 | 56 | 195 | 1.0 | 5.0 | 0.13 | 1.14 | 0.46 | 91 | 1005.0 |
| 20260903115604 | 56 | 228 | 0.0 | 5.0 | 0.11 | 1.12 | 0.44 | 91 | 1005.1 |
| 20260903115103 | 56 | 227 | 1.0 | 5.0 | 0.10 | 1.11 | 0.43 | 91 | 1005.2 |
| 20260903114605 | 56 | 227 | 1.0 | 3.0 | 0.09 | 1.10 | 0.42 | 91 | 1005.1 |
| 20260903114104 | 56 | 223 | 1.0 | 3.0 | 0.08 | 1.08 | 0.40 | 91 | 1005.1 |
| 20260903113605 | 56 | 195 | 0.0 | 3.0 | 0.06 | 1.06 | 0.38 | 91 | 1005.3 |
| 20260903113106 | 56 | 195 | 1.0 | 3.0 | 0.02 | 1.02 | 0.34 | 91 | 1005.1 |
| 20260903112611 | 56 | 195 | 0.0 | 2.0 | 0.01 | 1.01 | 0.33 | 91 | 1004.9 |
| 20260903112104 | 56 | 240 | 0.0 | 3.0 | 0.02 | 1.01 | 0.33 | 91 | 1004.8 |
| 20260903111604 | 56 | 235 | 1.0 | 3.0 | 0.02 | 1.01 | 0.33 | 91 | 1004.8 |
| 20260903111103 | 56 | 199 | 0.0 | 3.0 | 0.02 | 1.01 | 0.33 | 91 | 1004.9 |
| 20260903110605 | 56 | 195 | 0.0 | 3.0 | 0.02 | 1.01 | 0.33 | 91 | 1004.8 |
| 20260903110103 | 56 | 195 | 0.0 | 3.0 | 0.02 | 1.01 | 0.33 | 91 | 1004.7 |
| 20260903105603 | 56 | 222 | 1.0 | 3.0 | 0.02 | 1.01 | 0.33 | 91 | 1004.7 |
| 20260903105105 | 56 | 222 | 0.0 | 3.0 | 0.03 | 1.01 | 0.33 | 91 | 1004.8 |
| 20260903104104 | 56 | 222 | 0.0 | 3.0 | 0.02 | 1.00 | 0.32 | 91 | 1004.9 |